Weather History for KMWH - January, 2014

Change the Weather History Date:

Thursday, January 2, 2014

  Actual Average Record
Temperature  
Mean Temperature 32 °F 28 °F  
Max Temperature 33 °F 34 °F 54 °F (2007)
Min Temperature 30 °F 22 °F -1 °F (2009)
Degree Days  
Heating Degree Days 33 37  
Month to date heating degree days 68 74  
Since 1 July heating degree days 2752 2661  
Cooling Degree Days 0 0  
Month to date cooling degree days 0 0  
Year to date cooling degree days 0 0  
Moisture  
Dew Point 30 °F    
Average Humidity 95    
Maximum Humidity 100    
Minimum Humidity 89    
Precipitation  
Precipitation 0.00 in 0.05 in 0.26 in (2002)
Month to date precipitation 0.00 0.10  
Year to date precipitation 0.00 0.10  
Sea Level Pressure  
Sea Level Pressure 30.09 in    
Wind  
Wind Speed 4 mph (SSE)    
Max Wind Speed 13 mph    
Max Gust Speed 14 mph    
Visibility 2 miles    
Events Fog    
T = Trace of Precipitation, MM = Missing Value Source: NWS Daily Summary

Daily Weather History Graph

Daily Weather History Graph

Search for Another Location

Airport or City:

Trip Planner

Search our weather history database for the weather conditions in past years. The results will help you decide how hot, cold, wet, or windy it might be!

Date:

Astronomy

Jan. 02, 2014 Rise Set
Actual Time 7:43 AM PST 4:19 PM PST
Civil Twilight 7:08 AM PST 4:54 PM PST
Nautical Twilight 6:29 AM PST 5:33 PM PST
Astronomical Twilight 5:52 AM PST 6:10 PM PST
Moon 8:21 AM PST (1/2) 6:31 PM PST (1/2)
Length of Visible Light 9h 46m
Length of Day
8h 35m
Waxing Crescent, 3% of the Moon is Illuminated
Jan 2
Waxing Crescent
Jan 7
First Quarter
Jan 15
Full
Jan 23
Last Quarter
Jan 30
New

Hourly Weather History & Observations

Time (PST) Temp. Windchill Dew Point Humidity Pressure Visibility Wind Dir Wind Speed Gust Speed Precip Events Conditions
12:52 AM 33.1 °F - 30.9 °F 92% 30.37 in 7.0 mi Calm Calm - N/A   Overcast
1:52 AM 32.0 °F - 30.9 °F 96% 30.36 in 5.0 mi Calm Calm - N/A   Overcast
2:52 AM 32.0 °F 27.5 °F 30.0 °F 92% 30.35 in 5.0 mi SE 4.6 mph - N/A   Overcast
3:34 AM 30.2 °F 25.4 °F 30.2 °F 100% 30.30 in 4.0 mi ESE 4.6 mph - N/A   Overcast
3:52 AM 30.9 °F 27.5 °F 30.0 °F 96% 30.33 in 4.0 mi SSE 3.5 mph - N/A   Overcast
4:10 AM 30.2 °F 24.3 °F 30.2 °F 100% 30.28 in 1.8 mi ESE 5.8 mph - N/A   Overcast
4:31 AM 30.2 °F 25.4 °F 30.2 °F 100% 30.28 in 0.8 mi South 4.6 mph - N/A   Mist
4:52 AM 30.9 °F 27.5 °F 30.9 °F 100% 30.32 in 0.8 mi SW 3.5 mph - N/A   Mist
4:57 AM 30.2 °F 26.7 °F 30.2 °F 100% 30.28 in 2.0 mi SSW 3.5 mph - N/A   Overcast
5:48 AM 30.2 °F 25.4 °F 30.2 °F 100% 30.26 in 1.5 mi SSE 4.6 mph - N/A   Overcast
5:52 AM 30.9 °F 25.2 °F 30.0 °F 96% 30.30 in 1.2 mi SE 5.8 mph - N/A   Overcast
6:52 AM 30.9 °F 27.5 °F 30.0 °F 96% 30.29 in 0.2 mi SSE 3.5 mph - N/A Fog Light Freezing Fog
7:52 AM 30.9 °F 26.2 °F 30.0 °F 96% 30.27 in 0.2 mi South 4.6 mph - N/A Fog Light Freezing Fog
8:52 AM 30.9 °F 27.5 °F 30.0 °F 96% 30.27 in 0.2 mi SSE 3.5 mph - N/A Fog Light Freezing Fog
9:52 AM 30.9 °F 25.2 °F 30.0 °F 96% 30.26 in 0.2 mi South 5.8 mph - N/A Fog Light Freezing Fog
10:50 AM 30.2 °F 23.4 °F 30.2 °F 100% 30.20 in 2.0 mi SSE 6.9 mph - N/A   Overcast
10:52 AM 30.9 °F 24.3 °F 30.0 °F 96% 30.23 in 2.5 mi SSE 6.9 mph - N/A   Overcast
11:52 AM 30.0 °F 21.7 °F 30.0 °F 100% 30.19 in 2.0 mi South 9.2 mph - N/A   Overcast
11:59 AM 30.2 °F 23.4 °F 28.4 °F 93% 30.15 in 6.0 mi SSE 6.9 mph - N/A   Overcast
12:52 PM 30.0 °F 23.2 °F 28.9 °F 96% 30.15 in 6.0 mi SE 6.9 mph - N/A   Overcast
1:52 PM 30.0 °F 23.2 °F 28.9 °F 96% 30.11 in 6.0 mi SSE 6.9 mph - N/A   Overcast
2:05 PM 30.2 °F 24.3 °F 30.2 °F 100% 30.07 in 1.8 mi SSE 5.8 mph - N/A   Overcast
2:31 PM 30.2 °F 23.4 °F 30.2 °F 100% 30.04 in 0.5 mi SE 6.9 mph - N/A Fog Light Freezing Fog
2:52 PM 30.0 °F 25.2 °F 30.0 °F 100% 30.09 in 0.2 mi SE 4.6 mph - N/A Fog Light Freezing Fog
3:28 PM 30.2 °F 24.3 °F 30.2 °F 100% 30.03 in 0.5 mi SSE 5.8 mph - N/A Fog Light Freezing Fog
3:45 PM 30.2 °F 24.3 °F 30.2 °F 100% 30.02 in 0.2 mi SSE 5.8 mph - N/A Fog Light Freezing Fog
3:52 PM 30.9 °F 23.5 °F 30.0 °F 96% 30.05 in 0.2 mi SSE 8.1 mph - N/A Fog Light Freezing Fog
4:10 PM 30.2 °F 23.4 °F 30.2 °F 100% 30.00 in 0.5 mi SSE 6.9 mph - N/A Fog Light Freezing Fog
4:20 PM 30.2 °F 24.3 °F 30.2 °F 100% 30.00 in 0.2 mi SSE 5.8 mph - N/A Fog Light Freezing Fog
4:28 PM 30.2 °F 26.7 °F 30.2 °F 100% 30.01 in 0.5 mi SSW 3.5 mph - N/A Fog Light Freezing Fog
4:52 PM 30.9 °F 24.3 °F 30.0 °F 96% 30.03 in 0.2 mi SSE 6.9 mph - N/A Fog Light Freezing Fog
4:59 PM 30.2 °F 26.7 °F 30.2 °F 100% 29.99 in 0.8 mi South 3.5 mph - N/A   Mist
5:43 PM 30.2 °F - 30.2 °F 100% 29.97 in 0.2 mi Calm Calm - N/A Fog Light Freezing Fog
5:52 PM 30.0 °F - 28.9 °F 96% 30.01 in 0.5 mi Calm Calm - N/A Fog Light Freezing Fog
6:14 PM 30.2 °F - 30.2 °F 100% 29.96 in 1.5 mi Calm Calm - N/A   Overcast
6:31 PM 30.2 °F 26.7 °F 28.4 °F 93% 29.93 in 0.8 mi SE 3.5 mph - N/A   Mist
6:52 PM 30.0 °F - 28.9 °F 96% 29.96 in 0.5 mi Calm Calm - N/A Fog Light Freezing Fog
7:52 PM 30.0 °F - 30.0 °F 100% 29.93 in 0.5 mi Calm Calm - N/A Fog Light Freezing Fog
8:32 PM 30.2 °F 25.4 °F 28.4 °F 93% 29.87 in 1.0 mi West 4.6 mph - N/A   Mist
8:39 PM 30.2 °F 26.7 °F 28.4 °F 93% 29.87 in 0.5 mi WNW 3.5 mph - N/A Fog Light Freezing Fog
8:52 PM 30.0 °F - 28.9 °F 96% 29.88 in 0.5 mi Calm Calm - N/A Fog Light Freezing Fog
9:44 PM 30.2 °F - 28.4 °F 93% 29.83 in 1.0 mi Calm Calm - N/A   Mist
9:52 PM 30.0 °F - 28.9 °F 96% 29.86 in 1.0 mi Calm Calm - N/A   Mist
10:33 PM 30.2 °F - 28.4 °F 93% 29.82 in 0.8 mi Calm Calm - N/A   Mist
10:52 PM 30.0 °F 24.1 °F 28.9 °F 96% 29.87 in 0.8 mi NNW 5.8 mph - N/A   Mist
11:42 PM 30.2 °F - 28.4 °F 93% 29.84 in 1.0 mi Calm Calm - N/A   Overcast
11:47 PM 30.2 °F - 28.4 °F 93% 29.84 in 1.2 mi Calm Calm - N/A   Overcast
11:52 PM 30.0 °F - 28.9 °F 96% 29.88 in 1.5 mi Calm Calm - N/A   Overcast